Regional Weather Roundup
Issued by NWS

Home | Current Version | Previous Version | Graphics & Text | Print | Product List | Glossary Off
Versions: 1 2 3 4 5 6 7 8 9 10 11 12 13 14 15 16 17 18 19 20 21 22 23 24 25 26 27

000
ASUS43 KDMX 201807
RWRIA

WEATHER ROUNDUP FOR IOWA
NATIONAL WEATHER SERVICE DES MOINES IA
100 PM CDT SUN APR 20 2014

NOTE: "FAIR" INDICATES FEW OR NO CLOUDS BELOW 12,000 FEET WITH NO
SIGNIFICANT WEATHER AND/OR OBSTRUCTIONS TO VISIBILITY.

* - THESE STATIONS ARE NOT NWS STATIONS...THUS NOT UNDER NWS
QUALITY CONTROL.  THEY ALSO DO NOT REPORT WEATHER SUCH
AS PRECIPITATION OR FOG.

IAZ001>003-012>014-020>022-031>034-043>046-201900-
   NORTHWEST IOWA

CITY           SKY/WX    TMP DP  RH WIND       PRES   REMARKS
CARROLL *      SUNNY     77  50  38 SW14      29.97F
CHEROKEE *       N/A     73  55  53 S6        29.97F
DENISON *      SUNNY     77  52  41 SW10      29.96F
LE MARS *      SUNNY     75  52  43 SE8G14    29.96F
ORANGE CITY *  SUNNY     73  48  40 SE6       29.97F
SHELDON *      SUNNY     72  48  43 E9        29.96F
SIOUX CITY     MOSUNNY   75  55  49 SE9       29.96F
6HR MIN TEMP:  55; 6HR MAX TEMP:  75; 6HR PCP: TRACE;

SPENCER        MOSUNNY   72  50  45 E5        29.98F
6HR MIN TEMP:  49; 6HR MAX TEMP:  73;

STORM LAKE *   SUNNY     72  55  56 S10       29.99F
$$

IAZ055>058-069>071-079>083-090>094-201900-
   SOUTHWEST IOWA

CITY           SKY/WX    TMP DP  RH WIND       PRES   REMARKS
ATLANTIC *     SUNNY     77  52  41 S17G24    29.98F
AUDUBON *      SUNNY     79  45  29 SW12G20   30.00F
CLARINDA *     SUNNY     81  54  39 S18       30.01F HX  80
COUNCIL BLFS * SUNNY     77  54  44 S10G20    29.97F
CRESTON *      SUNNY     77  54  44 SW21G30   30.02F
HARLAN  *      SUNNY     77  52  41 SW13G24   30.01F
LAMONI         MOSUNNY   77  51  40 S16G26    30.04F
6HR MIN TEMP:  55; 6HR MAX TEMP:  78;

RED OAK *      SUNNY     81  54  39 SW14      29.99F HX  80
SHENANDOAH *   SUNNY     82  54  36 SW16      29.99F HX  81
$$

IAZ047>049-059>061-072>074-084-201900-
   CENTRAL IOWA

CITY           SKY/WX    TMP DP  RH WIND       PRES   REMARKS
AMES           PTSUNNY   77  53  43 S18G29    29.99F
6HR MIN TEMP:  53; 6HR MAX TEMP:  78;

ANKENY *       MOSUNNY   79  54  41 S16G25    30.00F
CHARITON *     SUNNY     77  52  41 SW16G26   30.04F
DES MOINES     PTSUNNY   81  52  36 SW16G23   30.01F HX  80
6HR MIN TEMP:  57; 6HR MAX TEMP:  82;

GRINNELL*      MOSUNNY   77  48  36 S16G23    30.04F
KNOXVILLE *    SUNNY     77  50  38 S15G24    30.03F
MARSHALLTOWN   MOSUNNY   78  54  43 S14G24    30.01F
6HR MIN TEMP:  53; 6HR MAX TEMP:  78; 6HR PCP: TRACE;

NEWTON *       SUNNY     79  50  36 S17G26    30.02F
PELLA *        PTSUNNY   81  50  34 S14       30.04F HX  80
PERRY *          N/A     81  46  30 SW15      29.99F HX  80
$$

IAZ004>006-015-016-023>025-035-036-201900-
   NORTH CENTRAL IOWA

CITY           SKY/WX    TMP DP  RH WIND       PRES   REMARKS
ALGONA *       SUNNY     70  55  60 S12       30.00F
CLARION *      SUNNY     68  55  64 SE7       30.01F
ESTHERVILLE    SUNNY     70  51  51 VRB3      29.99F
6HR MIN TEMP:  48; 6HR MAX TEMP:  70; 6HR PCP: TRACE;

FORT DODGE *   MOSUNNY   73  57  56 N9        30.00F
MASON CITY     MOSUNNY   62  57  83 S10       30.05S
6HR MIN TEMP:  53; 6HR MAX TEMP:  62; 6HR PCP:  0.46;

FOREST CITY *  MOSUNNY   63  57  82 S9        30.02F
IOWA FALLS *   CLOUDY    70  54  56 SE8       30.03F
$$

IAZ007>011-017>019-026>030-037>042-050>054-066-201900-
   NORTHEAST IOWA

CITY           SKY/WX    TMP DP  RH WIND       PRES   REMARKS
CEDAR RAPIDS   MOSUNNY   79  47  32 S15G23    30.04F
6HR MIN TEMP:  54; 6HR MAX TEMP:  79;

CHARLES CITY * PTSUNNY   55  54  94 S8        30.05F
CLINTON *      MOSUNNY   79  45  29 SW14G23   30.11F
DECORAH *      LGT RAIN  54  54 100 SE9       30.04F
DUBUQUE        MOSUNNY   75  46  35 S14G21    30.07F
6HR MIN TEMP:  51; 6HR MAX TEMP:  77;

MONTICELLO *   SUNNY     77  48  36 S12G18    30.06F
OELWEIN *      PTSUNNY  N/A N/A N/A S8        30.07F
WATERLOO       CLOUDY    69  52  54 MISG      30.05F
6HR MIN TEMP:  53; 6HR MAX TEMP:  69; 6HR PCP:  0.07;

$$

IAZ064-065-067-068-078-201900-
   EAST CENTRAL IOWA

CITY           SKY/WX    TMP DP  RH WIND       PRES   REMARKS
DAVENPORT      SUNNY     80  44  27 S16G24    30.09F
6HR MIN TEMP:  55; 6HR MAX TEMP:  80;

IOWA CITY      MOSUNNY   78  49  35 S14G24    30.07F
6HR MIN TEMP:  50; 6HR MAX TEMP:  78;

MT. PLEASANT * SUNNY     79  43  27 SW15G24   30.08F
MUSCATINE *    SUNNY     81  46  30 SW16G23   30.07F HX  80
QUAD CITIES    MOSUNNY   79  44  28 SW16G22   30.08F
6HR MIN TEMP:  51; 6HR MAX TEMP:  80;

$$

IAZ062-063-075>077-085>089-095>099-201900-
   SOUTHEAST IOWA

CITY           SKY/WX    TMP DP  RH WIND       PRES   REMARKS
BURLINGTON     MOSUNNY   77  47  34 S7        30.10F
6HR MIN TEMP:  55; 6HR MAX TEMP:  77;

FAIRFIELD *    SUNNY     79  46  31 S12G22    30.07F
FORT MADISON * SUNNY     77  46  33 S8G18     30.10F
KEOKUK *       SUNNY     79  50  36 SW16      30.08F
OSKALOOSA *      N/A     80  48  32 SW21G26   30.06F
CENTERVILLE *  SUNNY     77  50  38 SW14G24   30.08F
OTTUMWA        MOSUNNY   80  48  32 S14       30.05F
6HR MIN TEMP:  55; 6HR MAX TEMP:  80;

WASHINGTON *   SUNNY     81  46  30 SW17G28   30.07F HX  80
$$

ABBREVIATIONS USED IN REMARKS
   TC - TEMPERATURES IN CELSIUS
  WCI - WIND CHILL INDEX
   HX - HEAT INDEX
  VSB - VISIBILITY
$$




USA.gov is the U.S. government's official web portal to all federal, state and local government web resources and services.